TimeAKDT,TemperatureF,Dew PointF,Humidity,Sea Level PressureIn,VisibilityMPH,Wind Direction,Wind SpeedMPH,Gust SpeedMPH,PrecipitationIn,Events,Conditions,WindDirDegrees,DateUTC
12:42 AM,62.6,57.2,82,29.93,10.0,Variable,6.9,-,N/A,,Overcast,0,2013-08-31 08:42:00
12:56 AM,63.0,57.0,81,29.95,10.0,Variable,3.5,-,N/A,,Mostly Cloudy,0,2013-08-31 08:56:00
1:09 AM,60.8,55.4,82,29.93,10.0,Variable,3.5,-,N/A,,Mostly Cloudy,0,2013-08-31 09:09:00
1:38 AM,57.2,53.6,88,29.93,10.0,ENE,9.2,-,N/A,,Mostly Cloudy,70,2013-08-31 09:38:00
1:56 AM,55.9,52.0,87,29.95,10.0,East,8.1,-,N/A,,Overcast,100,2013-08-31 09:56:00
2:16 AM,57.2,53.6,88,29.92,10.0,ESE,4.6,-,N/A,,Overcast,120,2013-08-31 10:16:00
2:33 AM,57.2,53.6,88,29.93,10.0,Calm,Calm,-,N/A,,Overcast,0,2013-08-31 10:33:00
2:56 AM,57.9,54.0,87,29.94,10.0,East,4.6,-,N/A,,Overcast,90,2013-08-31 10:56:00
3:56 AM,55.9,53.1,90,29.96,10.0,SE,3.5,-,N/A,,Overcast,140,2013-08-31 11:56:00
4:17 AM,53.6,51.8,94,29.94,4.0,SE,3.5,-,N/A,Rain,Light Rain,140,2013-08-31 12:17:00
4:27 AM,53.6,51.8,94,29.94,4.0,ENE,3.5,-,N/A,Rain,Light Rain,60,2013-08-31 12:27:00
4:44 AM,53.6,51.8,94,29.94,6.0,East,4.6,-,N/A,Rain,Light Rain,90,2013-08-31 12:44:00
4:56 AM,53.1,51.1,93,29.96,6.0,WNW,4.6,-,N/A,Rain,Light Rain,290,2013-08-31 12:56:00
5:03 AM,53.6,51.8,94,29.94,6.0,West,3.5,-,N/A,Rain,Light Rain,270,2013-08-31 13:03:00
5:15 AM,53.6,51.8,94,29.94,6.0,Calm,Calm,-,N/A,Rain,Light Rain,0,2013-08-31 13:15:00
5:39 AM,51.8,50.0,94,29.93,5.0,Calm,Calm,-,N/A,Rain,Light Rain,0,2013-08-31 13:39:00
5:56 AM,52.0,51.1,97,29.96,5.0,Calm,Calm,-,N/A,,Overcast,0,2013-08-31 13:56:00
6:38 AM,53.6,51.8,94,29.93,10.0,Variable,3.5,-,N/A,,Overcast,0,2013-08-31 14:38:00
6:56 AM,53.1,52.0,96,29.94,6.0,East,5.8,-,N/A,,Overcast,80,2013-08-31 14:56:00
7:18 AM,53.6,51.8,94,29.93,10.0,Calm,Calm,-,N/A,,Overcast,0,2013-08-31 15:18:00
7:30 AM,51.8,51.8,100,29.93,6.0,Calm,Calm,-,N/A,Fog,Overcast,0,2013-08-31 15:30:00
7:56 AM,52.0,51.1,97,29.95,6.0,Calm,Calm,-,N/A,Fog,Overcast,0,2013-08-31 15:56:00
7:58 AM,51.8,51.8,100,29.93,10.0,Calm,Calm,-,N/A,Fog,Overcast,0,2013-08-31 15:58:00
8:12 AM,53.6,51.8,94,29.93,9.0,Calm,Calm,-,N/A,Fog,Overcast,0,2013-08-31 16:12:00
8:13 AM,53.6,51.8,94,29.93,8.0,Calm,Calm,-,N/A,Fog,Overcast,0,2013-08-31 16:13:00
8:56 AM,55.0,53.1,93,29.95,7.0,Calm,Calm,-,N/A,Fog,Overcast,0,2013-08-31 16:56:00
9:09 AM,55.4,53.6,94,29.93,9.0,East,3.5,-,N/A,Fog,Overcast,80,2013-08-31 17:09:00
9:56 AM,53.1,51.1,93,29.95,3.0,SE,4.6,-,N/A,Fog,Overcast,140,2013-08-31 17:56:00
10:00 AM,53.6,51.8,94,29.94,1.8,SE,5.8,-,N/A,Fog,Overcast,140,2013-08-31 18:00:00
10:14 AM,53.6,51.8,94,29.93,3.0,Calm,Calm,-,N/A,Fog,Overcast,0,2013-08-31 18:14:00
10:28 AM,53.6,51.8,94,29.94,4.0,Calm,Calm,-,N/A,Fog,Mostly Cloudy,0,2013-08-31 18:28:00
10:56 AM,54.0,52.0,93,29.96,3.0,SE,3.5,-,N/A,Fog,Overcast,130,2013-08-31 18:56:00
11:08 AM,53.6,51.8,94,29.94,3.0,SE,3.5,-,N/A,Fog,Overcast,140,2013-08-31 19:08:00
11:14 AM,53.6,51.8,94,29.94,3.0,Calm,Calm,-,N/A,,Overcast,0,2013-08-31 19:14:00
11:33 AM,53.6,51.8,94,29.94,2.0,Calm,Calm,-,N/A,,Overcast,0,2013-08-31 19:33:00
11:35 AM,53.6,51.8,94,29.94,2.0,Calm,Calm,-,N/A,,Overcast,0,2013-08-31 19:35:00
11:44 AM,51.8,51.8,100,29.94,1.5,West,3.5,-,N/A,,Overcast,280,2013-08-31 19:44:00
11:56 AM,52.0,51.1,97,29.96,1.5,West,3.5,-,N/A,,Overcast,260,2013-08-31 19:56:00
12:08 PM,51.8,51.8,100,29.93,1.0,Calm,Calm,-,0.00,Rain,Light Rain,0,2013-08-31 20:08:00
12:23 PM,53.6,51.8,94,29.93,3.0,West,3.5,-,0.00,Fog,Overcast,260,2013-08-31 20:23:00
12:37 PM,53.6,51.8,94,29.93,3.0,Calm,Calm,-,0.00,Fog,Overcast,0,2013-08-31 20:37:00
12:43 PM,53.6,51.8,94,29.93,4.0,Calm,Calm,-,0.00,Fog,Overcast,0,2013-08-31 20:43:00
12:56 PM,54.0,52.0,93,29.94,4.0,WNW,3.5,-,0.00,Fog,Overcast,290,2013-08-31 20:56:00
1:08 PM,53.6,51.8,94,29.93,7.0,Calm,Calm,-,N/A,Fog,Overcast,0,2013-08-31 21:08:00
1:21 PM,53.6,51.8,94,29.93,10.0,Calm,Calm,-,N/A,Fog,Overcast,0,2013-08-31 21:21:00
1:56 PM,55.9,54.0,93,29.93,10.0,Calm,Calm,-,N/A,Fog,Overcast,0,2013-08-31 21:56:00
2:56 PM,61.0,57.0,87,29.91,10.0,SSW,5.8,-,N/A,,Overcast,200,2013-08-31 22:56:00
3:56 PM,62.1,57.9,86,29.89,10.0,Calm,Calm,-,N/A,,Overcast,0,2013-08-31 23:56:00
4:56 PM,66.9,60.1,79,29.87,10.0,East,3.5,-,N/A,,Mostly Cloudy,90,2013-09-01 00:56:00
5:56 PM,57.0,54.0,89,29.85,10.0,East,4.6,-,N/A,,Mostly Cloudy,100,2013-09-01 01:56:00
6:56 PM,64.9,60.1,84,29.83,10.0,Variable,6.9,-,0.00,,Overcast,0,2013-09-01 02:56:00
7:18 PM,68.0,60.8,78,29.80,10.0,SSW,15.0,19.6,N/A,,Overcast,210,2013-09-01 03:18:00
7:56 PM,66.9,60.1,79,29.81,10.0,SSW,9.2,-,N/A,,Mostly Cloudy,200,2013-09-01 03:56:00
8:34 PM,66.2,60.8,83,29.78,10.0,SSW,19.6,-,0.00,,Mostly Cloudy,210,2013-09-01 04:34:00
8:56 PM,68.0,60.1,76,29.79,10.0,SSW,11.5,-,0.00,,Scattered Clouds,200,2013-09-01 04:56:00
9:56 PM,68.0,60.1,76,29.77,10.0,SE,5.8,-,N/A,,Scattered Clouds,140,2013-09-01 05:56:00
10:56 PM,68.0,59.0,73,29.77,10.0,SSW,12.7,-,N/A,,Scattered Clouds,210,2013-09-01 06:56:00
11:56 PM,68.0,59.0,73,29.76,10.0,SSW,16.1,19.6,N/A,,Clear,200,2013-09-01 07:56:00